Вернуться в каталог

STARLINK-30915

АктивенСвязьVLEO
NORAD 58380·PAYLOAD·🇺🇸 United States

Запущен Nov 20, 2023 с Vandenberg Space Force Base

Loading…

Ближайшие Пролёты (ближайшие 24 часа)

TLE

СвежийSource: CelesTrak SupGP

Эпоха: Sep 14, 2026, 22:35 UTC

1 58380C 23178G   26257.94145833 -.00029476  00000+0 -87101-3 0  2570
2 58380  53.1570 109.3597 0001286  87.3823 244.7374 15.34400700    15

Отслеживайте STARLINK-30915 в реальном времени с AllMySat

Download on the App Store